Flag for U.S.A. Weather past 2 weeks in Grand Prairie, Texas, U.S.A.

Now
68 °F

Scattered clouds.


Feels Like: 68 °F
Forecast: 63 / 77 °F
Wind: 3 mph from Southeast

Location: Grand Prairie Municipal Airport

Current Time: Apr 21, 2015 at 9:15:02 PM

Latest Report: Apr 21, 2015 at 8:55 PM


Visibility: 10 mi

Pressure: 29.91 "Hg

Humidity: 60%

Dew point: 53 °F

Location of Grand PrairieLocation

Historic Weather in Grand Prairie — Graph

°F

Grand Prairie temperature yesterday

Maximum temperature yesterday: 68 °F (at 5:50 PM)
Minimum temperature yesterday: 49 °F (at 6:35 AM)
Average temperature yesterday: 58 °F

Past Weeks' High & Low Weather Summary

 TemperatureHumidityPressure
High82 °F (Apr 9, 3:50 PM)100% (Apr 7, 7:50 AM)30.23 "Hg (Apr 7, 7:50 AM)
Low49 °F (Apr 20, 6:35 AM)35% (Apr 20, 1:50 PM)29.73 "Hg (Apr 19, 7:50 AM)
Average64 °F80%29.96 "Hg
* Reported Apr 7 6:50 AM — Apr 21 8:15 PM, Grand Prairie, Weather by CustomWeather, © 2015

Note: Actual official high and low records may vary slightly from our data, if they occured in-between our weather recording intervals... More about our weather records

Advertising

Grand Prairie weather history for previous 24 hours

 ConditionsComfort  
Time TempWeatherWind HumidityBarometerVisibility
8:15 PM
Tue, Apr 21
69 °FScattered clouds.6 mph59%29.90 "Hg10 mi
7:50 PM70 °FScattered clouds.6 mph57%29.89 "Hg10 mi
6:50 PM73 °FSunny.10 mph50%29.90 "Hg10 mi
5:50 PM73 °FScattered clouds.12 mph47%29.91 "Hg10 mi
4:50 PM73 °FSunny.12 mph47%29.92 "Hg10 mi
3:50 PM73 °FScattered clouds.12 mph50%29.93 "Hg10 mi
2:50 PM72 °FScattered clouds.12 mph53%29.96 "Hg10 mi
1:50 PM70 °FSunny.12 mph57%29.98 "Hg10 mi
12:50 PM66 °FScattered clouds.8 mph60%30.01 "Hg10 mi
11:50 AM64 °FScattered clouds.7 mph56%30.05 "Hg10 mi
10:50 AM63 °FLight rain. Scattered clouds.7 mph56%30.06 "Hg10 mi
8:50 AM61 °FSunny.7 mph59%30.03 "Hg10 mi
7:50 AM59 °FClear.No wind68%30.02 "Hg10 mi
6:50 AM57 °FClear.5 mph63%30.00 "Hg10 mi
6:35 AM57 °FPassing clouds.5 mph67%29.99 "Hg10 mi
6:15 AM57 °FPassing clouds.5 mph66%30.00 "Hg10 mi
5:55 AM56 °FPassing clouds.5 mph68%30.00 "Hg10 mi
5:35 AM56 °FPassing clouds.3 mph64%30.01 "Hg10 mi
5:15 AM54 °FPassing clouds.No wind74%30.00 "Hg10 mi
4:55 AM56 °FClear.5 mph65%30.00 "Hg10 mi
4:35 AM53 °FClear.No wind79%30.01 "Hg10 mi
4:15 AM52 °FClear.No wind81%30.02 "Hg10 mi
3:55 AM53 °FClear.No wind77%30.02 "Hg10 mi
3:35 AM56 °FClear.No wind67%30.03 "Hg10 mi
3:15 AM54 °FClear.6 mph75%30.02 "Hg10 mi
2:55 AM56 °FClear.5 mph73%30.02 "Hg10 mi
2:35 AM55 °FClear.5 mph73%30.02 "Hg10 mi
2:15 AM55 °FClear.3 mph72%30.03 "Hg10 mi
1:55 AM55 °FClear.3 mph72%30.03 "Hg10 mi
1:35 AM56 °FClear.No wind69%30.03 "Hg10 mi
1:15 AM57 °FClear.No wind69%30.04 "Hg10 mi
12:55 AM58 °FClear.3 mph68%30.04 "Hg10 mi
12:35 AM58 °FClear.No wind69%30.04 "Hg10 mi
12:15 AM57 °FClear.3 mph73%30.03 "Hg10 mi
11:55 PM
Mon, Apr 20
58 °FClear.No wind70%30.03 "Hg10 mi
11:35 PM59 °FClear.No wind67%30.03 "Hg10 mi
11:15 PM60 °FClear.3 mph63%30.03 "Hg10 mi
10:15 PM61 °FClear.No wind54%30.02 "Hg10 mi
9:55 PM61 °FClear.No wind54%30.02 "Hg10 mi
9:15 PM61 °FClear.No wind52%30.00 "Hg10 mi
Weather by CustomWeather, © 2015

See weather overviewHow to use our weather pages